FW4030 Weather Reports


Display with metric or nautical units.
time (UTC)temp
F
wind
direction
speed
MPH
gust
MPH
rain 1hr
in
rain 24hr
in
rain mn
in
humidity
%
barometer
mb
20260906041621 49 135 0.0 0.0 0.00 0.00 0.00 97 1037.2
20260906041521 49 135 0.0 0.0 0.00 0.00 0.00 97 1037.2
20260906040523 49 135 0.0 0.0 0.00 0.00 0.00 97 1037.2
20260906035522 49 135 0.0 0.0 0.00 0.00 0.00 97 1037.0
20260906034524 49 135 0.0 0.0 0.00 0.00 0.00 96 1037.1
20260906033523 49 135 0.0 1.0 0.00 0.00 0.00 96 1037.3
20260906032622 49 135 0.0 0.0 0.00 0.00 0.00 96 1037.4
20260906031621 49 135 0.0 0.0 0.00 0.00 0.00 96 1037.4
20260906030622 49 135 0.0 0.0 0.00 0.00 0.00 96 1037.7
20260906025623 49 135 0.0 0.0 0.00 0.00 0.00 96 1037.7
20260906024623 49 135 0.0 0.0 0.00 0.00 0.00 96 1037.8
20260906023621 49 135 0.0 0.0 0.00 0.00 0.00 96 1037.6
20260906023523 49 135 0.0 0.0 0.00 0.00 0.00 96 1037.7
20260906023422 49 135 0.0 0.0 0.00 0.00 0.00 96 1037.7
20260906022423 49 135 0.0 0.0 0.00 0.00 0.00 96 1037.5
20260906021322 50 135 0.0 1.0 0.00 0.00 0.00 95 1037.5
20260906021223 50 135 0.0 1.0 0.00 0.00 0.00 95 1037.5
20260906020222 50 135 0.0 0.0 0.00 0.00 0.00 95 1037.7
20260906015222 50 135 0.0 0.0 0.00 0.00 0.00 95 1037.5
20260906013224 50 135 0.0 0.0 0.00 0.00 0.00 95 1037.3
20260906005222 51 135 0.0 0.0 0.00 0.00 0.00 94 1037.4
20260906005121 51 135 0.0 0.0 0.00 0.00 0.00 94 1037.4
20260906004137 51 135 0.0 0.0 0.00 0.00 0.00 94 1037.3
20260906003121 51 135 0.0 0.0 0.00 0.00 0.00 94 1037.3
20260906002024 51 135 0.0 0.0 0.00 0.00 0.00 93 1037.2
20260906001022 51 135 0.0 0.0 0.00 0.00 0.00 93 1037.2
20260906000923 51 135 0.0 0.0 0.00 0.00 0.00 93 1037.2
20260905235923 52 135 0.0 0.0 0.00 0.00 0.00 93 1037.3
20260905235023 52 135 0.0 0.0 0.00 0.00 0.00 93 1037.4
20260905234921 52 135 0.0 0.0 0.00 0.00 0.00 93 1037.5
20260905233921 52 112 0.0 2.0 0.00 0.00 0.00 92 1037.4
20260905232820 52 112 0.0 0.0 0.00 0.00 0.00 92 1037.4
20260905231823 52 112 0.0 0.0 0.00 0.00 0.00 92 1037.4
20260905225823 52 180 0.0 0.0 0.00 0.00 0.00 92 1037.1
20260905223923 53 180 0.0 0.0 0.00 0.00 0.00 91 1037.0
20260905222923 53 180 0.0 0.0 0.00 0.00 0.00 91 1036.9
20260905221924 53 180 0.0 0.0 0.00 0.00 0.00 90 1036.8
20260905221021 54 180 0.0 0.0 0.00 0.00 0.00 89 1036.9
20260905215024 54 180 0.0 0.0 0.00 0.00 0.00 89 1036.8
20260905214922 54 180 0.0 0.0 0.00 0.00 0.00 89 1036.8
20260905214824 54 180 0.0 0.0 0.00 0.00 0.00 89 1036.8
20260905213822 55 180 1.0 2.0 0.00 0.00 0.00 88 1036.9
20260905212825 55 180 0.0 1.0 0.00 0.00 0.00 88 1036.8
20260905211823 55 180 1.0 2.0 0.00 0.00 0.00 87 1036.8
20260905210921 55 180 1.0 2.0 0.00 0.00 0.00 87 1036.7
20260905205922 55 180 1.0 2.0 0.00 0.00 0.00 86 1036.7
20260905204923 56 180 1.0 2.0 0.00 0.00 0.00 86 1036.7
20260905203925 56 180 1.0 2.0 0.00 0.00 0.00 85 1036.6
20260905202923 56 180 0.0 0.0 0.00 0.00 0.00 84 1036.5
20260905202839 56 180 0.0 0.0 0.00 0.00 0.00 84 1036.6
20260905201922 57 116 2.0 3.0 0.00 0.00 0.00 83 1036.6
20260905200923 57 112 0.0 1.0 0.00 0.00 0.00 83 1036.4
20260905200822 57 112 1.0 1.0 0.00 0.00 0.00 83 1036.5
20260905195822 58 180 0.0 0.0 0.00 0.00 0.00 82 1036.3
20260905194823 58 180 0.0 1.0 0.00 0.00 0.00 81 1036.4
20260905190922 60 180 0.0 1.0 0.00 0.00 0.00 76 1036.1
20260905185923 60 180 2.0 3.0 0.00 0.00 0.00 76 1036.0
20260905184921 60 180 2.0 4.0 0.00 0.00 0.00 75 1035.9
20260905182922 62 180 3.0 4.0 0.00 0.00 0.00 72 1035.7
20260905181921 62 180 4.0 7.0 0.00 0.00 0.00 72 1035.6
20260905175823 63 180 0.0 1.0 0.00 0.00 0.00 68 1035.5
20260905174822 64 180 3.0 5.0 0.00 0.00 0.00 66 1035.4
20260905172839 66 178 4.0 9.0 0.00 0.00 0.00 63 1035.2
20260905165021 67 173 3.0 6.0 0.00 0.00 0.00 60 1034.7
20260905164923 67 180 5.0 8.0 0.00 0.00 0.00 59 1034.8
20260905164022 69 177 7.0 11.0 0.00 0.00 0.00 58 1034.7
20260905163122 69 168 7.0 11.0 0.00 0.00 0.00 58 1034.5
20260905162123 69 178 4.0 9.0 0.00 0.00 0.00 58 1034.4
20260905161122 69 175 8.0 14.0 0.00 0.00 0.00 59 1034.2
20260905160123 69 178 8.0 13.0 0.00 0.00 0.00 59 1034.2
20260905155137 69 178 9.0 14.0 0.00 0.00 0.00 59 1034.1
20260905154221 68 180 5.0 10.0 0.00 0.00 0.00 60 1034.1
20260905153221 68 175 9.0 14.0 0.00 0.00 0.00 60 1034.1
20260905152221 69 177 6.0 14.0 0.00 0.00 0.00 58 1033.9
20260905152123 69 164 6.0 10.0 0.00 0.00 0.00 58 1033.9
20260905151221 69 178 7.0 12.0 0.00 0.00 0.00 59 1033.6
20260905145222 69 155 5.0 9.0 0.00 0.00 0.00 59 1033.6
20260905144321 69 180 7.0 10.0 0.00 0.00 0.00 59 1033.4
20260905142323 70 160 7.0 11.0 0.00 0.00 0.00 60 1033.3
20260905141322 69 142 5.0 13.0 0.00 0.00 0.00 59 1033.3
20260905140323 71 175 7.0 10.0 0.00 0.00 0.00 57 1033.1
20260905135322 70 178 10.0 15.0 0.00 0.00 0.00 58 1033.0
20260905134321 70 175 7.0 14.0 0.00 0.00 0.00 59 1032.8
20260905133323 70 177 10.0 15.0 0.00 0.00 0.00 59 1033.0
20260905131323 69 170 5.0 9.0 0.00 0.00 0.00 60 1032.7
20260905130421 70 178 7.0 12.0 0.00 0.00 0.00 60 1032.6
20260905125422 70 180 8.0 12.0 0.00 0.00 0.00 60 1032.6
20260905124421 71 178 11.0 16.0 0.00 0.00 0.00 59 1032.5
20260905123422 70 177 10.0 15.0 0.00 0.00 0.00 62 1032.5
20260905122522 69 164 8.0 17.0 0.00 0.00 0.00 63 1032.5
20260905121522 68 155 8.0 13.0 0.00 0.00 0.00 62 1032.4
20260905120521 69 145 8.0 15.0 0.00 0.00 0.00 62 1032.2
20260905115522 69 147 11.0 17.0 0.00 0.00 0.00 64 1032.2
20260905113621 68 180 9.0 15.0 0.00 0.00 0.00 69 1032.0
20260905112622 67 112 5.0 10.0 0.00 0.00 0.00 70 1031.9
20260905112522 67 155 5.0 8.0 0.00 0.00 0.00 70 1032.0
20260905111522 66 168 12.0 17.0 0.00 0.00 0.00 71 1031.9
20260905110521 66 166 9.0 14.0 0.00 0.00 0.00 71 1031.8
20260905105521 65 160 10.0 14.0 0.00 0.00 0.00 72 1031.8
20260905104522 65 147 9.0 18.0 0.00 0.00 0.00 72 1031.9
20260905103620 65 155 9.0 14.0 0.00 0.00 0.00 73 1031.6
20260905102624 65 164 3.0 6.0 0.00 0.00 0.00 74 1031.5
20260905100637 66 123 8.0 13.0 0.00 0.00 0.00 74 1031.3
20260905100522 66 150 7.0 11.0 0.00 0.00 0.00 74 1031.4
20260905095522 66 160 7.0 11.0 0.00 0.00 0.00 77 1031.3
20260905094523 65 151 8.0 14.0 0.00 0.00 0.00 77 1031.2
20260905094421 65 142 10.0 17.0 0.00 0.00 0.00 77 1031.3
20260905093520 64 129 8.0 13.0 0.00 0.00 0.00 79 1031.3
20260905092524 64 134 7.0 14.0 0.00 0.00 0.00 80 1031.2
20260905091523 65 157 8.0 12.0 0.00 0.00 0.00 81 1031.2
20260905090522 64 147 6.0 10.0 0.00 0.00 0.00 81 1031.0
20260905085521 64 152 7.0 12.0 0.00 0.00 0.00 82 1030.9
20260905084522 64 141 6.0 10.0 0.00 0.00 0.00 83 1030.8
20260905084420 64 125 6.0 12.0 0.00 0.00 0.00 83 1030.8
20260905083423 63 162 7.0 9.0 0.00 0.00 0.00 84 1030.8
20260905081523 63 142 5.0 11.0 0.00 0.00 0.00 84 1030.5
20260905080521 63 113 4.0 8.0 0.00 0.00 0.00 85 1030.6
20260905075521 63 116 3.0 7.0 0.00 0.00 0.00 86 1030.3
20260905074621 62 142 3.0 7.0 0.00 0.00 0.00 88 1030.3
20260905072622 61 152 4.0 9.0 0.00 0.00 0.00 90 1030.1
20260905071623 60 150 4.0 7.0 0.00 0.00 0.00 91 1029.9
20260905071523 60 127 6.0 9.0 0.00 0.00 0.00 92 1029.8
20260905071424 59 126 5.0 9.0 0.00 0.00 0.00 92 1029.9
20260905070425 59 132 4.0 6.0 0.00 0.00 0.00 92 1029.8
20260905065521 58 115 2.0 4.0 0.00 0.00 0.00 93 1029.6
20260905065420 58 126 4.0 7.0 0.00 0.00 0.00 93 1029.6
20260905064422 57 142 4.0 7.0 0.00 0.00 0.00 93 1029.5
20260905063520 57 119 5.0 8.0 0.00 0.00 0.00 93 1029.6
20260905062522 56 135 2.0 3.0 0.00 0.00 0.00 94 1029.3
20260905061521 56 117 3.0 6.0 0.00 0.00 0.00 94 1029.1
20260905060521 56 114 4.0 7.0 0.00 0.00 0.00 94 1029.1
20260905055523 55 120 2.0 4.0 0.00 0.00 0.00 94 1029.1
20260905054521 55 114 2.0 5.0 0.00 0.00 0.00 94 1029.0
20260905052620 55 120 3.0 5.0 0.00 0.00 0.00 94 1028.8
20260905052537 55 120 3.0 5.0 0.00 0.00 0.00 94 1028.8
20260905051621 55 126 4.0 6.0 0.00 0.00 0.00 94 1028.7
20260905050623 55 126 3.0 5.0 0.00 0.00 0.00 94 1028.7
20260905050521 55 119 3.0 5.0 0.00 0.00 0.00 94 1028.5
20260905044522 55 127 3.0 5.0 0.00 0.00 0.00 94 1028.4
20260905043523 55 120 2.0 4.0 0.00 0.00 0.00 94 1028.3
20260905042522 55 124 2.0 6.0 0.00 0.00 0.00 94 1028.3